STARLINK-36195, 67124

Orbit data source: Space-Track

STARLINK-36195, 67124 is a payload satellite owned by SpaceX/Seattle (US) in LEO that was launched on Mon, 15 Dec 2025 UTC via an FALCON 9 launch vehicle from the Air Force Eastern Test Range (AFETR). Payload-class satellites include a variety of spacecraft equipped with specific instruments for various scientific and technological missions. These include communications satellites like Starlink; space stations such as the ISS; scientific satellites like the Hubble; Earth observation satellites from companies like Planet Labs, Umbra, and HawkEye 360; GPS; miniature CubeSats for education and research; and military/defense satellites.

Loading next visibility...
Identifier
67124, 2025-299Y
Orbit
LEO
Country
Flag of USUS
Related business
Manufacturer
SpaceX/Seattle
Mission
Operational Commercial Communications
Bus & Motor
STARLINK V2MO, Unknown motor
Mass
575 kg wet, ~530 kg dry
Launch date (UTC)
2025-12-15 (6 months ago)
Launch vehicle
FALCON 9
Launch site
Air Force Eastern Test Range (AFETR)
Object type
Payload
Rocket body
Debris
Shape & HBR
Box + 2 Pan, 17.7 m
Radar Cross Section
36.964 m², Large (>1 m²)

Expand to show TLE details & history
Last TLE update: 10 hours ago

TLE from 10 hours ago
0 STARLINK-36195
1 67124U 25299Y   26171.42467764  .00013869  00000-0  51233-3 0  9998
2 67124  43.0007 308.3303 0001011 225.6376 134.4393 15.27593545 28834
Epoch: 2026-06-20T10:11Z
TLE epoch observation values (Epoch: 2026-06-20T10:11:32.148Z)
Latitude
Longitude
-113.19314°
Altitude
483.27 km
Speed
7.625 km/s
True Right ascension
20h 33m 19s
True Declination
0° 00' 00"
Sunlit
Object was in full shadow at epoch
Visualization orbit readout
Latitude
Unknown
Longitude
Unknown
Altitude
Unknown
Speed
Unknown
Apparent Right ascension
Unknown
Apparent Declination
Unknown
Sunlit
N/A
Visualization observer readout
Local Sidereal Time
07:18:31
Azimuth
Unknown
Elevation
Unknown
Doppler factor
Unknown
Orbital elements
Apogee altitude
485.647 km
Perigee altitude
484.26 km
Semi-major axis
6,863.091 km
Eccentricity
0.0001
Inclination
43.0007°
RAAN
308.3303°
Arg. of periapsis
225.6376°
True anomaly
134.44757°
Mean anomaly
134.4393°
Eccentric anomaly
134.44344°
Mean motion
3.81736 °/min
Orbital period
94.31 mins
BSTAR
0.00051233
Loading maneuver chart data...
Computing Atmospheric mass density...
Loading historical data...
Loading historical data...
Loading historical data...
Loading historical data...
Loading historical data...
Loading historical data...
Loading historical data...

Documentation

Showing up to 5 results
|